Loisir ou Compétition : Rejoignez un Club de la Fédération

Résultats

CHALLENGE NATIONAL U14 FOND

GRAND BORNAND VILLAGE

FS Dames

Jury de Compétition

Délégué Technique :
VITTOZ STEPHANE (MB)
D.T. Adjoint :
HUARD ANAEL (MB)
Dir. Epreuve :
ROCHET JOANNY (MB)

Caractéristiques de la Piste

Piste :
STADE DE BIATHLON SYLVIE BECAE
Distance :
4 km
Point Haut :
 
Point Bas :
 
Montée Tot. :
 
Montée Max. :
 
Homologation :
2015-57.2

Pénalité Appliquée :
240.0000
Coefficient :
800

Catégorie :
U14
Style :
C
Clt Dos Clt/Cat Code An Nom Prénom Com Club Temps Ecart Points
Classés
1 116 1/U14 FFS2644719 2002 RICHON CAPUCINE SA CS LA FECLAZ 11:32.3 00:00.0 240.00
2 80 2/U14 FFS2660732 2003 COUPAT LIV FZ BESSAT S HIV 11:46.5 00:14.2 256.41
3 189 3/U14 FFS2670898 2002 PIERREL JULIE MB SC GD BORNAN 11:52.5 00:20.2 263.34
4 150 4/U14 FFS2667044 2002 VEYRE MAELLE AP MTGVE V.CLAR 11:56.9 00:24.6 268.43
5 5 5/U14 FFS2665498 2002 ROCHE LUDMILLA AP AS EDELWEISS 11:58.5 00:26.2 270.28
6 194 6/U14 FFS2660755 2002 CLOETENS MAYA DA GUC GRENOBLE 11:59.3 00:27.0 271.20
7 184 7/U14 FFS2668155 2002 SAVOIE LISA MJ HT JURA SKI 11:59.8 00:27.5 271.78
8 70 8/U14 FFS2665310 2002 MUNIER ELODIE SA MONOLITHE SF 12:00.6 00:28.3 272.70
9 101 9/U14 FFS2670359 2002 BENED CHLOE MB CHABLAIS NOR 12:02.9 00:30.6 275.36
9 180 9/U14 FFS2665303 2002 MICHELON OCEANE SA BAUGES S.N 12:02.9 00:30.6 275.36
11 165 11/U14 FFS2676094 2003 SCHWEITZER COLINE MV SC RANSPACH 12:04.9 00:32.6 277.67
12 90 12/U14 FFS2659929 2002 CERDAN ANNOUK LY US CORMARANC 12:08.0 00:35.7 281.25
13 111 13/U14 FFS2677081 2002 JEANNIER LEONIE MJ AS VERRIERES 12:11.9 00:39.6 285.76
14 1102 14/U14 FFS2676611 2002 COURVOISIER CELIA MJ SC MONT NOIR 12:16.0 00:43.7 290.50
15 190 15/U14 FFS2672086 2002 JAEGGY EMILIE MV SC RANSPACH 12:16.2 00:43.9 290.73
16 29 16/U14 FFS2671448 2002 PATUREL DORINE MB SCNP ROCHOIS 12:16.5 00:44.2 291.08
17 22 17/U14 FFS2660687 2002 GRUNEWALD ELEONORE DA VERCORS SKF 12:18.9 00:46.6 293.85
18 13 18/U14 FFS2665301 2002 RAMAZ ADELAIDE SA BAUGES S.N 12:24.0 00:51.7 299.74
19 36 19/U14 FFS2670902 2002 BASTARD ROSSET LUCIE MB SC GD BORNAN 12:26.0 00:53.7 302.05
20 168 20/U14 FFS2661275 2003 PONTA PAOLA MV VAGNEY ROCHE 12:27.3 00:55.0 303.56
21 9 21/U14 FFS2671780 2002 DIDIERLAURENT CLEMENCE MV VAGNEY ROCHE 12:27.4 00:55.1 303.67
22 63 22/U14 FFS2664153 2002 DUBOIS LOUNA DA CS VILLARD 12:27.9 00:55.6 304.25
23 183 23/U14 FFS2648985 2002 MANCINI CHARLOTTE SA CN REVARD 12:30.8 00:58.5 307.60
24 50 24/U14 FFS2670556 2002 PENDRY SHAWNA PE CAPCIR 12:32.3 01:00.0 309.33
25 135 25/U14 FFS2655742 2002 GAULIER JULIETTE DA CS VILLARD 12:34.2 01:01.9 311.53
26 25 26/U14 FFS2671004 2003 PROCHET ALICE AP MTGVE V.CLAR 12:35.9 01:03.6 313.49
26 67 26/U14 FFS2647512 2002 CHAPPAZ FELICIE MB CS LA CLUSAZ 12:35.9 01:03.6 313.49
28 24 28/U14 FFS2666812 2002 TAFFIN NINA SA SC PEISEY VA 12:39.4 01:07.1 317.54
29 146 29/U14 FFS2676452 2002 PAGNIER CLOE MJ CHAUX NEUVE 12:40.5 01:08.2 318.81
30 1104 30/U14 FFS2676609 2002 CAT LENA MJ SC MONT NOIR 12:42.1 01:09.8 320.66
31 11 31/U14 FFS2670327 2002 LATASTE LUCIE MV MOLSHEIM SN 12:43.2 01:10.9 321.93
32 158 32/U14 FFS2670580 2003 BESSON LEONIE AP AS EDELWEISS 12:43.9 01:11.6 322.74
33 149 33/U14 FFS2659648 2003 SARRAT MANON SA SC BOZEL 12:45.0 01:12.7 324.01
34 18 34/U14 FFS2669529 2002 MOUGIN THEA MJ PREMANON SC 12:46.1 01:13.8 325.28
35 104 35/U14 FFS2661517 2002 LAUTH EVA DA VERCORS SKF 12:46.5 01:14.2 325.74
36 60 36/U14 FFS2665858 2002 SABATELLI CARLA SA CS LA FECLAZ 12:47.0 01:14.7 326.32
37 23 37/U14 FFS2660685 2003 CUCCARO ROMANE DA VERCORS SKF 12:47.2 01:14.9 326.55
38 163 38/U14 FFS2670906 2002 PLACE ISELINE MB SC GD BORNAN 12:47.6 01:15.3 327.01
39 68 39/U14 FFS2663450 2002 GRISNAUX YSALINE SA SC MENUIRES 12:47.9 01:15.6 327.36
40 152 40/U14 FFS2665311 2002 VIGNOL MANON SA MONOLITHE SF 12:48.3 01:16.0 327.82
41 1103 41/U14 FFS2669082 2002 ELOY LILOU SA COURCHEVEL 12:49.2 01:16.9 328.86
42 91 42/U14 FFS2654800 2002 MAGNIER LUCIE DA US AUTRANNAI 12:49.4 01:17.1 329.09
42 191 42/U14 FFS2652071 2002 RICHARD JEANNE MB LES GETS S.C 12:49.4 01:17.1 329.09
44 78 44/U14 FFS2652793 2002 PERRET MELISSA DA SNGR OISANS 12:50.0 01:17.7 329.79
45 93 45/U14 FFS2660067 2002 BAJARD SOLENE DA SNB CHAMROUS 12:50.1 01:17.8 329.90
46 115 46/U14 FFS2654839 2002 GREAU ALIZEE LY SC BRENOD 12:50.5 01:18.2 330.37
47 193 47/U14 FFS2675560 2002 CHOUARD JULIETTE MJ SC GRANDVAUX 12:51.9 01:19.6 331.98
48 118 48/U14 FFS2671188 2002 PELLEGRINI AUGUSTINE MJ OYE-PALLET 12:52.0 01:19.7 332.10
49 77 49/U14 FFS2670660 2002 POIROT APOLLINE MV LA BRESSAUDE 12:52.7 01:20.4 332.91
50 178 50/U14 FFS2655903 2002 BERTRAND FANY SA SC MERIBEL 12:53.3 01:21.0 333.60
51 173 51/U14 FFS2654837 2002 CHARVOLIN CANDICE LY SC BRENOD 12:54.7 01:22.4 335.22
52 185 52/U14 FFS2670897 2002 FAVRE BONVIN ZOE MB SC GD BORNAN 12:56.6 01:24.3 337.41
53 94 53/U14 FFS2670928 2003 SANCHEZ ANNA DA SN CHARTROUS 12:57.2 01:24.9 338.11
54 156 54/U14 FFS2664469 2003 MARCINIAK JULIE MB CS MEGEVE 12:57.5 01:25.2 338.45
55 73 55/U14 FFS2667038 2002 GONON CHARLINE AP MTGVE V.CLAR 12:57.7 01:25.4 338.69
56 154 56/U14 FFS2671634 2003 GILET AMELIE MV VAGNEY ROCHE 12:58.1 01:25.8 339.15
57 175 57/U14 FFS2664568 2002 TRIBOULOT JEANNE MV GERARDMER SN 13:01.0 01:28.7 342.50
58 38 58/U14 FFS2662969 2003 GILBERT JEANSELME LOLA AP GAP-BAYARD 13:01.3 01:29.0 342.85
59 105 59/U14 FFS2670210 2002 MAUGER JULIE MB PRAZ LYS-SOM 13:03.0 01:30.7 344.81
60 48 60/U14 FFS2681102 2003 BLANC ANNA MJ SC ABBAYE 13:03.6 01:31.3 345.50
60 153 60/U14 FFS2681114 2003 HUYGHE LOU MJ SC ABBAYE 13:03.6 01:31.3 345.50
62 47 62/U14 FFS2675691 2003 LEBAY CAROLINE MB PRAZ LYS-SOM 13:04.8 01:32.5 346.89
63 76 63/U14 FFS2682651 2002 MORRAL FERANDIS MARIONA PE CAPCIR 13:05.2 01:32.9 347.35
64 132 64/U14 FFS2665748 2002 LAURENCE COLINE MJ CSR PONTARLI 13:07.1 01:34.8 349.55
65 96 65/U14 FFS2671190 2002 BILLET EMMA MJ OYE-PALLET 13:08.2 01:35.9 350.82
66 174 66/U14 FFS2670561 2002 MATHE MARCELLINE SA CS LA FECLAZ 13:08.6 01:36.3 351.28
67 147 67/U14 FFS2676608 2002 FORET JUSTINE MJ SMBM/MORBIER 13:09.0 01:36.7 351.74
68 144 68/U14 FFS2661021 2003 GOUY CELIA DA US AUTRANNAI 13:10.2 01:37.9 353.13
69 113 69/U14 FFS2671187 2002 LAHEURTE PERRINE MJ OYE-PALLET 13:12.4 01:40.1 355.67
70 102 70/U14 FFS2653736 2002 DUCOS AGATHE DA CS VILLARD 13:13.4 01:41.1 356.83
71 143 71/U14 FFS2649489 2002 GAILLARD MARGAUX DA SA MEAUDRAIS 13:14.9 01:42.6 358.56
72 137 72/U14 FFS2647938 2002 SILVE LOUNA AP ORRES EMBRUN 13:15.2 01:42.9 358.91
73 58 73/U14 FFS2675804 2002 HAUCK MELISSA MJ OLYMP MT DOR 13:15.9 01:43.6 359.72
74 27 74/U14 FFS2670214 2002 GUILLAUMOT MARGOT MB PRAZ LYS-SOM 13:16.9 01:44.6 360.87
75 1101 75/U14 FFS2651686 2003 NUNEZ THALYA SA COURCHEVEL 13:18.2 01:45.9 362.37
76 82 76/U14 FFS2660923 2003 BESSIERE ELISE DA SNB CHAMROUS 13:18.4 01:46.1 362.61
77 195 77/U14 FFS2676147 2002 FEUGUEUR ORLANE MB SC D'AGY 13:20.0 01:47.7 364.45
78 83 78/U14 FFS2675805 2002 BESANCON ALICE MJ OLYMP MT DOR 13:20.2 01:47.9 364.69
79 177 79/U14 FFS2676442 2002 BLONDEAU ANNA MJ CHAUX NEUVE 13:20.5 01:48.2 365.03
80 34 80/U14 FFS2665288 2003 CHARVOLIN MARTHE DA SNB CHAMROUS 13:21.8 01:49.5 366.53
81 89 81/U14 FFS2677329 2002 SALVI JEANNE MJ A.S MOUTHE 13:22.0 01:49.7 366.77
82 123 82/U14 FFS2671033 2002 DUPONT LOUNA DA CS VILLARD 13:22.1 01:49.8 366.88
83 53 83/U14 FFS2665400 2002 BARDINET ROMANE DA SNGR OISANS 13:22.4 01:50.1 367.23
84 41 84/U14 FFS2655269 2002 GELDHOF LAURANNE DA SN CHARTROUS 13:22.5 01:50.2 367.34
85 155 85/U14 FFS2670597 2002 SAYSSAC CLARA MB CS CHAMONIX 13:23.1 01:50.8 368.04
86 107 86/U14 FFS2670779 2002 FROIDURE CLEMENTINE MB SCNP ROCHOIS 13:23.9 01:51.6 368.96
87 106 87/U14 FFS2671069 2002 BLONDAZ BLANDINE MB CS CHAMONIX 13:24.2 01:51.9 369.31
87 130 87/U14 FFS2671189 2002 DESCOURVIERES EMILIE MJ OYE-PALLET 13:24.2 01:51.9 369.31
89 112 89/U14 FFS2670258 2002 CREDOZ ALICIA MB CS LA CLUSAZ 13:26.1 01:53.8 371.50
90 39 90/U14 FFS2676469 2003 BONY VIOLETTE MB DRAGONS ANNY 13:27.7 01:55.4 373.35
91 2 91/U14 FFS2676225 2002 GIRAUD CLARA MJ PREMANON SC 13:28.0 01:55.7 373.70
92 4 92/U14 FFS2667022 2002 BAPTISTE LOUNA AP ES VALLOUISE 13:28.5 01:56.2 374.28
93 200 93/U14 FFS2683910 2003 COURVOISIER LEA MJ SC MONT NOIR 13:28.7 01:56.4 374.51
94 181 94/U14 FFS2654620 2002 SIMONNEAU NAIS DA SA MEAUDRAIS 13:29.5 01:57.2 375.43
95 72 95/U14 FFS2670449 2003 BROUTIER AMELIE SA BAUGES S.N 13:30.9 01:58.6 377.05
96 110 96/U14 FFS2675807 2003 ARTAUD JADE PE CAPCIR 13:35.8 02:03.5 382.71
97 20 97/U14 FFS2660549 2002 HUGUE ALICE AP ORRES EMBRUN 13:38.1 02:05.8 385.37
98 172 98/U14 FFS2660021 2002 BOUSSARD CAPUCINE MV GERARDMER SN 13:38.5 02:06.2 385.83
99 151 99/U14 FFS2671406 2002 ECHE HELOISE MB CS CHAMONIX 13:40.0 02:07.7 387.57
100 139 100/U14 FFS2670781 2002 MANDEL CLEMENCE MB SCNP ROCHOIS 13:41.0 02:08.7 388.72
101 64 101/U14 FFS2667023 2002 CIESLAR NOEMIE AP ES VALLOUISE 13:41.5 02:09.2 389.30
102 81 102/U14 FFS2670390 2002 NEUBURGER MANON DA SNB CHAMROUS 13:43.1 02:10.8 391.15
103 171 103/U14 FFS2655708 2002 NIOGRET AGATHE LY CS VALROMEY 13:43.3 02:11.0 391.38
104 35 104/U14 FFS2659930 2002 MOREL LENA LY US CORMARANC 13:45.6 02:13.3 394.04
105 120 105/U14 FFS2668375 2002 DUNAND JULIANE SA SC BOZEL 13:46.1 02:13.8 394.62
106 176 106/U14 FFS2683259 2003 ARDIET ELEONORE MJ A.S MOUTHE 13:46.3 02:14.0 394.85
107 160 107/U14 FFS2670926 2003 GATIE EVA DA SN CHARTROUS 13:47.1 02:14.8 395.77
108 198 108/U14 FFS2676146 2003 ROSSIGNOL LEA MB SC D'AGY 13:47.5 02:15.2 396.23
109 3 109/U14 FFS2645602 2002 HALEY NELL MB CS CHAMONIX 13:48.0 02:15.7 396.81
110 95 110/U14 FFS2660499 2003 VALETTE LOUNA DA US AUTRANNAI 13:48.3 02:16.0 397.16
111 134 111/U14 FFS2665168 2003 RAOULT ZOE SA SC BOZEL 13:48.8 02:16.5 397.74
112 32 112/U14 FFS2659138 2003 POIROT LENNA MV LA BRESSAUDE 13:49.8 02:17.5 398.89
113 44 113/U14 FFS2654373 2003 LAMBERT TALIA SA SC MERIBEL 13:50.2 02:17.9 399.35
114 192 114/U14 FFS2665861 2002 SERAFIN BEAUTE AMANDINE SA CS LA FECLAZ 13:52.8 02:20.5 402.36
115 42 115/U14 FFS2657480 2003 VURLI VALENTINE MB SC D'AGY 13:56.1 02:23.8 406.17
116 12 116/U14 FFS2654445 2003 SOUVY LOU ANNE SA SC BOZEL 13:56.5 02:24.2 406.63
117 140 117/U14 FFS2671368 2002 GIORDANO MADELINE MB VILLARD/BOEG 13:59.3 02:27.0 409.87
118 56 118/U14 FFS2675582 2002 GAUDET ADELIE MJ OLYMP MT DOR 14:00.2 02:27.9 410.91
119 99 119/U14 FFS2670903 2002 CROS JEANNE MB SC GD BORNAN 14:00.4 02:28.1 411.14
120 100 120/U14 FFS2656063 2003 JEFFERIES MOLLY MB LES GETS S.C 14:01.0 02:28.7 411.83
121 85 121/U14 FFS2670396 2002 GIGNOUX ANAIS DA SNB CHAMROUS 14:04.8 02:32.5 416.22
122 103 122/U14 FFS2671510 2002 PERRIN SANDIE MV LA BRESSAUDE 14:04.9 02:32.6 416.34
123 26 123/U14 FFS2674592 2002 FLAISSIER LOU MB CS CHAMONIX 14:06.3 02:34.0 417.96
124 159 124/U14 FFS2670253 2003 BIHLER NINA MB DRAGONS ANNY 14:07.8 02:35.5 419.69
125 142 125/U14 FFS2656544 2002 CROS MARIE DA CS VILLARD 14:09.2 02:36.9 421.31
126 138 126/U14 FFS2657793 2003 ZANELLATO ELODIE SA CS VAL CENIS 14:11.3 02:39.0 423.74
127 87 127/U14 FFS2660998 2003 ALLARD ELEONORE MB CS MEGEVE 14:11.6 02:39.3 424.08
128 128 128/U14 FFS2670884 2002 LABBE THAIS DA GUC GRENOBLE 14:12.4 02:40.1 425.01
129 119 129/U14 FFS2661267 2003 GROSJEAN MARINE MV BASS/RUPT SN 14:14.4 02:42.1 427.32
130 65 130/U14 FFS2664891 2002 BELLON MARGAUX SA SC BOZEL 14:16.1 02:43.8 429.28
131 79 131/U14 FFS2680651 2002 SERRETTE LISA MJ SC GRANDVAUX 14:16.3 02:44.0 429.51
132 43 132/U14 FFS2676143 2003 PIGNOT FRANCE MB SC D'AGY 14:16.4 02:44.1 429.63
133 108 133/U14 FFS2665753 2002 OTTENHEIMER MAUDE DA VERCORS SKF 14:16.6 02:44.3 429.86
134 55 134/U14 FFS2670734 2002 APPLAGNAT FLAVIE MB SC CONTAMINE 14:18.3 02:46.0 431.82
135 109 135/U14 FFS2681633 2003 LAUBE STEPHANIE AP ORRES EMBRUN 14:20.1 02:47.8 433.90
136 117 136/U14 FFS2681003 2003 CHAMBON VANESSA AU CN ST JULIEN 14:24.3 02:52.0 438.76
137 45 137/U14 FFS2675922 2003 LAUGIER LORETTE MB CS CHAMONIX 14:25.0 02:52.7 439.57
138 199 138/U14 FFS2661232 2002 JEANGEORGES ANAIS MV BASS/RUPT SN 14:27.1 02:54.8 441.99
139 14 139/U14 FFS2644094 2002 FORTINA NOEE MB SC CONTAMINE 14:27.5 02:55.2 442.46
140 88 140/U14 FFS2676089 2003 MAURY LISON MB CS CHAMONIX 14:27.8 02:55.5 442.80
141 7 141/U14 FFS2670595 2003 COURTIEU MARGOT SA CS LA FECLAZ 14:28.0 02:55.7 443.03
142 66 142/U14 FFS2672823 2003 MICHELIN ASTRID AU BOURBOULE 14:29.1 02:56.8 444.30
143 197 143/U14 FFS2660331 2003 GRASSET SIXTINE DA SN CHARTROUS 14:30.1 02:57.8 445.46
144 126 144/U14 FFS2657041 2003 JAY CLOE SA SC MENUIRES 14:33.7 03:01.4 449.62
145 71 145/U14 FFS2682602 2003 LEGENDRE TYFAINE MJ A.S MOUTHE 14:36.2 03:03.9 452.51
146 46 146/U14 FFS2666097 2003 MAITRE PIERRE LOU ANN AP ORRES EMBRUN 14:36.5 03:04.2 452.86
147 98 147/U14 FFS2678613 2002 BIGILLON LISE DA CS VILLARD 14:40.0 03:07.7 456.90
148 8 148/U14 FFS2666106 2002 VIGNEAU LUCIE MB CHABLAIS NOR 14:40.5 03:08.2 457.48
148 169 148/U14 FFS2670389 2003 MOUYADE MAELLE DA SNB CHAMROUS 14:40.5 03:08.2 457.48
150 51 150/U14 FFS2675477 2003 BETEND EMMA MB SC GD BORNAN 14:41.5 03:09.2 458.63
151 136 151/U14 FFS2670582 2003 COSTAGLIOLA CAMILLE AP AS EDELWEISS 14:45.1 03:12.8 462.79
152 54 152/U14 FFS2681174 2003 THERY LENA MJ OYE-PALLET 14:46.3 03:14.0 464.18
153 148 153/U14 FFS2674986 2002 BIANCO MANON AP GAP-BAYARD 14:46.7 03:14.4 464.64
154 1 154/U14 FFS2675467 2003 PUGNET LOU MB SC GD BORNAN 14:46.9 03:14.6 464.87
155 62 155/U14 FFS2644194 2002 PAVARANI JULIETTE MB SC CONTAMINE 14:50.8 03:18.5 469.38
156 125 156/U14 FFS2670453 2003 LANCHAIS MANON SA CS LA FECLAZ 14:52.0 03:19.7 470.77
157 84 157/U14 FFS2670559 2002 SAMSON EMMA PE CAPCIR 14:55.7 03:23.4 475.04
158 167 158/U14 FFS2670856 2002 ERBS SALOME MV MOLSHEIM SN 14:56.4 03:24.1 475.85
159 86 159/U14 FFS2671003 2003 MEYER NIMA AP MTGVE V.CLAR 14:56.8 03:24.5 476.31
160 21 160/U14 FFS2657399 2002 LAMBRET CAMILLE DA CS VILLARD 14:57.0 03:24.7 476.54
161 49 161/U14 FFS2660383 2003 MACHUT PAULINE LY SC LE POIZAT 14:58.1 03:25.8 477.82
162 114 162/U14 FFS2655092 2003 FERRER EVA LUNA MB VILLARD/BOEG 14:59.1 03:26.8 478.97
162 170 162/U14 FFS2654674 2003 FILLIARD PEMA DA CO SEPT LAUX 14:59.1 03:26.8 478.97
164 145 164/U14 FFS2676087 2003 CHAUSSIN THYLANE MB CS CHAMONIX 14:59.8 03:27.5 479.78
165 28 165/U14 FFS2659973 2003 BEGUINOT CAMILLE LY SC LOMPNES 15:00.4 03:28.1 480.47
166 19 166/U14 FFS2675771 2003 DUPONT CHLOE MB DRAGONS ANNY 15:00.5 03:28.2 480.59
167 179 167/U14 FFS2675974 2002 MORO MAELYS DA SN CHARTROUS 15:02.4 03:30.1 482.78
168 69 168/U14 FFS2671818 2002 CERRO ELEA AU CN ST JULIEN 15:04.1 03:31.8 484.75
169 157 169/U14 FFS2671774 2003 GLEYZOLLE NOUMEA DA CS VILLARD 15:05.7 03:33.4 486.60
170 131 170/U14 FFS2670448 2003 SUIFFET JUSTINE SA BAUGES S.N 15:08.2 03:35.9 489.49
171 15 171/U14 FFS2667667 2002 DEMBOURG LUCIE PE SC FTROMEUP2 15:08.3 03:36.0 489.60
172 121 172/U14 FFS2685603 2003 PREVALET STEPHANIE MJ A.S MOUTHE 15:08.8 03:36.5 490.18
173 74 173/U14 FFS2661276 2003 PIERREL EMMA MV BASS/RUPT SN 15:08.9 03:36.6 490.30
174 196 174/U14 FFS2665282 2003 CARREL LOLA DA SNGR OISANS 15:11.8 03:39.5 493.65
175 33 175/U14 FFS2670308 2002 SCHEURER FLORIANE MV MOLSHEIM SN 15:15.2 03:42.9 497.58
176 161 176/U14 FFS2675466 2003 BREMOND CHLOE MB SC GD BORNAN 15:15.5 03:43.2 497.92
177 127 177/U14 FFS2671130 2002 MERMOUD AMANDINE MB CS CHAMONIX 15:16.1 03:43.8 498.62
178 133 178/U14 FFS2675966 2002 GRANGE MARINE DA SM AIGUILLE 15:18.7 03:46.4 501.62
179 164 179/U14 FFS2664336 2003 PRONO CLARA AP ORRES EMBRUN 15:19.5 03:47.2 502.55
180 6 180/U14 FFS2660639 2003 GAILLARD JUSTINE DA SA MEAUDRAIS 15:22.6 03:50.3 506.13
181 129 181/U14 FFS2670317 2003 GRAILLOT BUNING HANNA MV MOLSHEIM SN 15:24.7 03:52.4 508.55
182 92 182/U14 FFS2677085 2003 PELLEGRINI LILLY MJ OYE-PALLET 15:26.2 03:53.9 510.29
183 10 183/U14 FFS2665198 2002 LEBOUBE EVANE LY US CORMARANC 15:26.8 03:54.5 510.98
184 162 184/U14 FFS2659937 2002 MORETTI LOU ANNE DA US AUTRANNAI 15:37.7 04:05.4 523.58
185 31 185/U14 FFS2682542 2003 LECOULTRE LARA MJ OLYMP MT DOR 15:41.3 04:09.0 527.74
186 16 186/U14 FFS2670340 2002 STOESSEL CLAIRE MB SC CONTAMINE 15:42.0 04:09.7 528.55
187 52 187/U14 FFS2677630 2003 VANWYMEERSCH JULIE AP ORRES EMBRUN 15:46.4 04:14.1 533.63
188 186 188/U14 FFS2681170 2003 ROUSSEL JEANNE MJ OYE-PALLET 15:52.4 04:20.1 540.56
189 57 189/U14 FFS2665791 2003 SAUSSAC MONTENE SA CN REVARD 16:12.7 04:40.4 564.02
190 187 190/U14 FFS2660152 2003 PIHEMA MAIA MB SC CONTAMINE 16:18.7 04:46.4 570.95
191 97 191/U14 FFS2665726 2002 MOUGEOT LENA LY CS VALROMEY 16:30.0 04:57.7 584.01
192 141 192/U14 FFS2675769 2003 POULAIN CAMILLE DA SNB CHAMROUS 16:43.9 05:11.6 600.08
193 30 193/U14 FFS2650015 2003 MOREL FLAVIE MJ SC LESFOURGS 16:45.0 05:12.7 601.35
194 188 194/U14 FFS2681806 2003 JELIC ILONA MB VILLARD/BOEG 17:03.2 05:30.9 622.38
195 75 195/U14 FFS2656103 2002 MOREL EMMA AU PLOMB CANTAL 17:03.8 05:31.5 623.07
196 37 196/U14 FFS2683261 2003 CLADEN SALOME MJ A.S MOUTHE 17:34.6 06:02.3 658.66
197 61 197/U14 FFS2675742 2003 CROISAT NADIA DA SNB CHAMROUS 19:19.7 07:47.4 780.11
Non partants
17 FFS2664314 2002 BARON FIONA MJ VAL MORTEAU
40 FFS2671450 2002 SYLVESTRE BARON CLAIRE MB SCNP ROCHOIS
59 FFS2654963 2002 FANTIN LAURA SA CN REVARD
122 FFS2681149 2003 RIGAUD NAMADIE AU SC DE BESSE
124 FFS2665682 2002 GRASSET CECILE LY SC LE POIZAT
166 FFS2675971 2002 ROLLAND LISE DA SM AIGUILLE
182 FFS2667043 2002 PARFAIT LUCIE AP MTGVE V.CLAR